Wind_Speed
22 21 19 18 17 15 13 13 12 12 10 7 6 6 6 7 7 7 7 6 5 5 6 6 5 5 6 7 10 12 15 16 18 18 18 18 18 18 18 19 20 21 21 22
22 20 18 17 17 17 17 16 15 14 13 10 9 9 8 8 8 8 7 7 6 5 3 3 4 5 7 9 11 12 14 15 16 16 16 15 15 16 17 18 20 21 22 22
20 19 18 18 17 17 17 16 15 15 14 13 11 11 10 10 11 10 9 7 5 3 1 1 2 4 5 7 9 10 12 13 15 15 15 15 16 16 17 19 20 21 21 22
20 19 18 17 17 16 16 16 15 14 14 14 12 13 13 13 14 13 11 9 7 5 4 4 3 4 6 7 9 11 13 14 16 16 17 17 18 18 18 19 20 21 22 22
19 18 17 17 16 15 15 15 14 14 13 13 13 13 14 15 15 14 13 11 9 8 7 6 6 6 7 8 10 11 13 14 16 16 17 18 18 19 19 19 20 21 21 21
18 16 16 15 15 15 15 15 14 13 13 13 13 14 14 14 14 14 12 11 10 9 8 8 8 8 9 10 11 13 14 15 16 17 18 18 19 19 19 19 20 20 20 20
17 16 16 15 14 14 14 14 14 13 13 13 14 14 13 13 13 12 12 11 10 10 9 9 9 10 10 11 13 14 16 17 17 18 18 19 20 20 20 19 19 19 19 19
16 15 14 14 13 13 13 13 13 12 12 12 12 12 12 12 12 12 12 12 12 11 12 12 12 13 14 14 15 16 17 17 18 18 19 19 19 19 18 18 18 17 17 18
14 13 13 13 12 12 12 11 11 10 10 10 10 10 11 12 12 13 14 14 14 14 14 15 16 16 17 17 17 17 17 18 18 18 18 18 17 17 16 16 15 15 15 15
12 12 12 11 11 11 11 10 9 8 7 7 7 8 10 11 12 13 14 15 15 15 16 16 17 17 18 18 18 18 17 17 17 17 17 16 16 15 15 14 13 13 12 13
11 10 10 9 9 9 9 8 7 6 5 5 5 7 8 10 12 13 14 15 16 16 17 17 17 18 18 18 18 18 18 17 17 17 17 16 16 15 14 13 13 12 11 12
10 10 9 8 7 7 7 6 5 5 4 4 5 5 7 9 11 12 14 15 16 16 16 17 17 17 17 17 18 18 18 19 19 19 19 18 18 17 16 15 14 13 13 12
12 10 9 7 6 7 6 6 5 4 3 3 4 5 6 8 9 11 13 14 15 15 16 16 16 16 17 17 18 18 19 19 20 20 21 21 20 19 18 17 16 15 15 14
15 12 10 8 6 7 7 6 5 5 4 4 4 4 5 6 7 9 11 12 13 14 15 15 15 15 16 17 17 18 19 19 20 21 22 23 23 22 22 20 19 18 18 17
17 15 13 10 8 7 6 6 6 6 6 6 5 4 4 5 5 7 9 11 12 13 13 14 14 14 15 15 16 17 18 19 20 21 23 24 24 24 24 23 22 22 21 21
16 16 15 14 11 8 7 6 5 6 6 6 5 5 4 4 4 5 6 8 10 11 12 13 13 13 13 14 15 16 17 18 19 20 21 22 23 24 24 24 23 23 23 23
13 15 16 15 15 12 9 7 7 7 7 7 6 6 5 5 4 4 4 5 7 9 10 11 11 12 12 13 13 14 15 16 17 18 19 20 21 22 23 23 23 23 23 23
11 12 14 15 16 15 14 11 10 10 9 8 6 6 6 5 5 4 3 3 4 6 8 9 10 11 11 11 12 13 14 15 16 17 18 18 19 19 20 21 22 23 23 23
11 11 12 13 15 15 15 15 13 12 11 9 7 6 7 7 6 5 4 3 2 3 5 7 9 10 10 10 10 11 12 14 15 16 17 17 17 18 18 19 20 21 22 22
14 12 11 12 14 15 15 15 15 14 13 12 9 7 7 8 8 7 6 5 4 3 3 5 7 8 8 9 9 10 11 12 14 15 16 16 17 17 17 17 18 18 19 19
18 16 14 13 13 14 15 15 15 15 15 14 13 9 7 6 6 7 7 7 6 5 4 3 5 6 7 7 8 8 9 10 12 13 15 15 16 16 16 16 17 17 17 17
22 20 18 16 15 14 15 15 15 15 15 15 15 13 10 7 4 5 8 9 9 8 6 5 4 4 5 6 6 7 7 8 9 11 13 14 15 15 15 15 16 16 15 15
25 24 22 20 18 17 16 15 15 15 15 15 15 14 12 9 6 5 7 8 10 10 10 8 7 5 5 5 5 6 6 6 7 8 10 12 13 14 14 14 14 15 15 14
27 28 27 25 22 20 19 17 16 16 15 15 15 14 12 11 9 5 5 8 9 11 11 11 10 8 6 5 5 6 6 6 7 7 8 10 11 13 13 14 14 14 14 14
29 29 30 29 27 25 23 21 19 18 17 16 15 14 13 12 10 8 6 6 9 11 12 13 13 12 10 8 6 6 6 7 7 7 8 8 10 11 12 13 13 13 13 14
32 31 31 31 31 29 26 25 23 21 19 18 17 16 14 13 11 10 8 7 8 9 12 13 14 15 14 12 10 8 8 7 7 7 8 8 9 10 11 11 12 12 13 13
36 34 33 33 34 33 31 29 27 25 23 21 19 18 16 15 13 12 10 9 8 9 11 13 15 16 17 16 14 13 11 10 9 8 8 9 9 10 10 10 11 11 12 12
Wind_Direction
33 39 44 50 61 72 87 92 96 92 87 92 81 73 74 84 100 116 125 124 126 131 140 161 181 206 231 252 267 277 282 288 289 291 292 293 288 288 284 281 279 279 280 283
39 43 49 55 65 77 85 88 89 89 84 87 77 75 76 77 87 97 116 120 121 129 145 190 237 258 266 275 280 284 288 292 294 296 299 296 293 290 286 283 281 280 281 283
40 45 52 61 68 78 84 89 90 88 82 78 72 71 73 74 75 80 82 84 87 91 64 342 288 290 290 292 296 299 301 303 303 303 303 300 297 293 289 287 284 284 284 285
43 48 55 61 70 77 83 87 86 85 83 79 76 78 78 78 76 73 72 70 65 54 40 25 3 337 324 317 313 310 309 309 309 306 305 303 300 297 293 290 288 286 286 285
43 49 55 61 69 73 78 81 80 80 82 83 84 81 78 76 73 69 66 62 54 45 33 22 8 354 343 334 327 321 316 313 311 310 307 305 302 298 295 291 289 287 287 286
44 48 53 59 65 69 72 75 73 76 81 83 79 77 74 69 65 62 59 52 45 36 27 17 7 355 344 335 328 322 319 316 313 310 307 304 301 298 295 292 291 289 287 284
42 49 55 58 60 60 65 67 73 78 81 82 80 76 70 64 59 56 53 49 43 35 25 13 2 352 343 335 330 326 323 320 316 312 309 307 305 302 299 295 292 290 286 283
36 45 51 53 55 56 60 66 73 79 81 81 78 72 64 58 53 51 49 45 40 30 19 9 1 354 348 342 338 334 331 328 324 321 318 316 313 310 306 301 296 293 290 287
32 41 47 50 54 52 54 61 69 76 81 81 76 67 59 53 49 47 44 40 33 24 16 9 3 359 355 351 347 345 342 339 336 333 331 328 324 320 316 311 306 301 298 295
30 37 43 48 52 50 51 56 64 74 79 77 71 63 56 51 47 44 39 34 28 23 17 12 8 3 0 358 357 355 354 353 352 350 348 344 340 336 332 328 323 318 312 309
30 33 36 42 45 45 45 51 57 63 65 60 56 54 50 46 42 38 33 30 27 23 19 15 10 7 7 8 9 10 10 10 8 6 3 360 356 354 352 350 347 342 336 332
23 21 21 28 34 31 30 32 39 47 42 39 39 40 42 40 36 33 30 29 27 24 20 17 15 15 16 18 20 21 22 23 23 20 18 16 13 10 9 8 7 4 1 357
22 18 14 14 18 16 12 12 16 12 5 9 17 20 26 30 32 31 30 29 27 24 21 20 21 22 23 26 29 30 31 31 30 29 27 25 25 25 25 25 24 21 19 19
27 23 16 8 358 356 358 360 358 350 343 338 343 353 6 18 26 29 30 30 27 24 24 24 26 27 29 32 34 35 35 35 34 33 33 34 34 35 36 36 36 35 35 35
23 24 22 17 6 356 352 351 347 339 329 324 324 330 344 3 16 24 28 29 27 24 24 26 28 31 31 33 36 37 37 38 37 37 38 38 39 40 41 42 43 43 44 43
15 19 20 20 17 10 3 356 346 334 325 319 316 315 321 336 352 7 18 24 24 24 23 24 28 31 32 33 35 36 37 38 38 39 40 41 41 42 43 44 44 45 46 47
1 9 13 15 16 16 9 1 351 340 333 327 314 304 303 308 317 328 351 10 18 21 20 21 24 28 30 33 34 34 34 35 36 36 38 39 40 40 42 43 45 46 47 49
335 351 -0 5 7 10 12 7 1 352 342 331 319 305 293 296 295 291 291 326 0 14 16 17 20 23 25 29 33 33 32 33 33 33 35 37 38 39 40 42 45 46 48 50
303 321 338 349 356 1 7 11 8 3 357 345 326 307 294 289 284 274 264 266 301 353 9 11 15 18 20 24 29 31 32 33 33 33 34 35 36 36 38 40 42 45 47 48
280 291 309 325 337 346 352 0 6 8 8 5 354 333 311 292 278 263 253 251 256 284 341 1 8 12 14 18 24 28 31 34 35 34 34 34 34 35 36 37 38 40 42 43
266 273 284 299 313 326 335 343 352 -0 5 7 6 356 339 315 282 251 240 240 244 254 278 321 347 360 7 11 16 22 27 33 35 34 34 34 34 33 34 35 36 36 37 38
258 262 268 277 289 302 315 325 333 343 352 360 5 4 357 341 312 250 234 234 238 244 255 271 299 326 346 357 3 10 16 23 28 31 32 32 31 30 30 31 31 32 31 31
255 256 259 264 272 282 293 304 314 323 334 344 352 0 3 357 337 276 240 235 237 240 247 256 266 283 308 329 342 351 356 2 11 20 25 27 27 26 26 25 26 26 26 26
253 253 254 257 261 267 275 285 294 304 314 325 337 346 354 358 354 327 267 247 244 244 246 249 254 261 274 292 311 325 334 339 346 357 8 16 21 23 23 22 21 20 21 21
251 251 251 252 255 258 263 270 277 286 296 305 316 328 337 345 346 340 312 276 257 252 248 247 249 252 258 268 280 295 310 319 326 335 345 356 6 13 17 18 17 16 16 16
249 249 249 250 251 253 256 260 266 272 280 289 298 307 317 327 336 337 329 302 278 263 253 248 248 249 252 257 263 273 286 299 310 318 326 334 343 354 5 10 12 12 11 12
248 247 247 248 249 250 251 254 257 262 267 274 283 290 298 307 316 325 331 326 303 279 264 256 251 250 250 252 256 261 269 279 291 303 312 319 325 333 343 355 2 5 6 7
Height
5767 5762 5759 5756 5754 5753 5754 5755 5757 5759 5761 5761 5762 5762 5763 5763 5763 5764 5766 5767 5768 5770 5772 5774 5776 5778 5780 5781 5782 5783 5784 5784 5783 5783 5782 5781 5780 5778 5777 5777 5776 5775 5773 5772
5773 5769 5766 5763 5761 5760 5760 5761 5762 5763 5764 5764 5764 5764 5765 5765 5765 5766 5768 5769 5770 5772 5773 5775 5777 5778 5779 5780 5780 5781 5780 5780 5780 5779 5778 5776 5775 5774 5772 5771 5770 5769 5768 5766
5778 5775 5772 5769 5768 5767 5766 5766 5767 5767 5768 5767 5768 5768 5768 5768 5768 5769 5770 5771 5773 5774 5775 5776 5777 5777 5777 5778 5778 5778 5778 5777 5776 5775 5773 5772 5770 5769 5767 5766 5764 5763 5761 5760
5783 5781 5778 5778 5773 5773 5772 5772 5772 5772 5772 5772 5772 5772 5772 5772 5772 5773 5773 5774 5775 5776 5776 5777 5777 5777 5777 5777 5776 5776 5775 5774 5772 5771 5769 5767 5765 5764 5762 5760 5759 5757 5755 5754
5788 5786 5783 5782 5780 5779 5778 5777 5777 5777 5777 5777 5777 5777 5777 5777 5777 5777 5777 5777 5778 5778 5778 5777 5777 5777 5776 5775 5775 5773 5772 5771 5769 5767 5765 5763 5761 5759 5757 5755 5753 5751 5749 5748
5793 5791 5789 5789 5786 5784 5784 5783 5782 5782 5781 5781 5781 5781 5782 5781 5781 5781 5780 5780 5780 5780 5779 5778 5778 5777 5776 5775 5773 5771 5769 5767 5765 5763 5760 5758 5756 5754 5751 5749 5747 5745 5743 5742
5798 5796 5794 5793 5791 5790 5790 5789 5787 5786 5786 5786 5786 5786 5786 5784 5784 5784 5783 5783 5782 5781 5780 5779 5778 5776 5775 5773 5771 5768 5766 5763 5761 5758 5756 5753 5750 5748 5745 5743 5741 5739 5737 5736
5802 5800 5800 5797 5795 5795 5794 5792 5791 5791 5790 5790 5790 5790 5789 5788 5787 5787 5786 5784 5783 5782 5780 5779 5777 5775 5772 5770 5767 5765 5762 5759 5757 5754 5750 5747 5744 5742 5739 5737 5735 5733 5731 5730
5807 5806 5802 5800 5799 5798 5797 5796 5795 5795 5794 5794 5794 5794 5793 5792 5791 5789 5788 5786 5784 5782 5780 5778 5775 5773 5770 5768 5765 5762 5759 5756 5753 5750 5746 5743 5740 5737 5735 5732 5730 5728 5726 5724
5808 5807 5805 5803 5802 5801 5800 5799 5799 5798 5798 5797 5797 5797 5796 5794 5793 5792 5790 5788 5786 5783 5781 5778 5775 5773 5770 5767 5764 5761 5758 5754 5751 5747 5744 5741 5738 5735 5732 5729 5726 5724 5722 5720
5811 5810 5808 5806 5805 5804 5803 5802 5801 5801 5800 5800 5799 5799 5798 5796 5795 5793 5792 5789 5787 5785 5782 5779 5776 5773 5770 5767 5764 5761 5758 5754 5751 5748 5744 5741 5737 5734 5730 5727 5724 5722 5719 5717
5815 5812 5810 5809 5807 5806 5805 5804 5803 5803 5802 5802 5801 5800 5799 5798 5797 5795 5793 5791 5789 5787 5784 5781 5778 5775 5772 5769 5766 5763 5760 5756 5753 5749 5746 5742 5738 5734 5730 5727 5724 5721 5718 5715
5817 5814 5812 5810 5809 5808 5807 5805 5805 5804 5804 5803 5803 5802 5801 5800 5799 5797 5795 5793 5791 5789 5786 5783 5780 5777 5774 5771 5768 5765 5762 5759 5756 5752 5748 5744 5740 5736 5732 5728 5725 5722 5719 5716
5819 5816 5813 5811 5810 5809 5807 5806 5805 5805 5804 5804 5803 5803 5802 5801 5800 5799 5797 5795 5793 5791 5788 5786 5783 5780 5777 5775 5772 5769 5766 5763 5760 5756 5752 5748 5743 5739 5735 5731 5728 5725 5722 5719
5821 5818 5816 5813 5811 5809 5808 5807 5806 5805 5804 5804 5803 5803 5802 5802 5801 5800 5798 5797 5795 5793 5791 5788 5786 5783 5780 5778 5775 5773 5770 5767 5764 5760 5756 5752 5748 5744 5740 5736 5733 5730 5726 5723
5823 5820 5817 5815 5812 5810 5808 5807 5806 5805 5804 5803 5803 5802 5802 5802 5801 5800 5799 5798 5796 5794 5792 5790 5788 5786 5783 5781 5778 5776 5773 5770 5767 5764 5761 5757 5754 5750 5746 5742 5739 5735 5732 5728
5824 5821 5819 5816 5814 5811 5809 5807 5806 5804 5803 5802 5801 5801 5801 5801 5800 5800 5799 5798 5797 5796 5794 5792 5790 5788 5786 5784 5781 5779 5776 5774 5771 5768 5765 5762 5758 5755 5751 5748 5745 5741 5738 5734
5824 5822 5820 5817 5815 5812 5810 5808 5806 5804 5802 5800 5800 5799 5799 5799 5799 5799 5798 5798 5797 5796 5795 5793 5792 5790 5788 5786 5784 5782 5779 5777 5774 5771 5768 5765 5762 5759 5756 5753 5750 5747 5744 5740
5822 5821 5819 5817 5815 5813 5811 5808 5806 5803 5801 5799 5798 5797 5797 5796 5796 5796 5797 5797 5797 5796 5795 5794 5792 5791 5790 5788 5786 5784 5781 5779 5777 5774 5771 5768 5766 5763 5760 5758 5755 5752 5749 5746
5819 5818 5817 5816 5814 5813 5811 5808 5806 5803 5801 5799 5797 5795 5794 5794 5793 5794 5794 5795 5795 5795 5795 5794 5793 5792 5791 5789 5787 5786 5783 5781 5779 5776 5774 5771 5769 5766 5764 5761 5758 5756 5753 5751
5814 5814 5814 5813 5813 5811 5809 5807 5805 5803 5801 5799 5796 5794 5792 5791 5790 5790 5791 5792 5793 5793 5793 5793 5793 5792 5791 5790 5788 5787 5785 5783 5781 5779 5776 5774 5771 5769 5767 5764 5762 5759 5757 5754
5808 5809 5809 5810 5809 5809 5807 5806 5804 5802 5800 5798 5796 5793 5791 5789 5788 5787 5788 5789 5790 5791 5791 5792 5792 5791 5791 5790 5789 5787 5786 5784 5782 5780 5778 5776 5774 5771 5769 5767 5764 5762 5759 5757
5801 5802 5803 5804 5805 5805 5804 5803 5802 5800 5799 5797 5795 5793 5790 5788 5786 5785 5786 5786 5787 5788 5789 5789 5790 5790 5790 5789 5788 5787 5786 5785 5783 5782 5780 5778 5775 5773 5771 5769 5766 5764 5762 5759
5793 5795 5796 5797 5798 5799 5799 5799 5799 5798 5796 5795 5793 5791 5789 5787 5785 5784 5783 5783 5784 5784 5785 5786 5787 5787 5788 5788 5787 5786 5785 5784 5783 5782 5780 5778 5776 5774 5772 5770 5768 5766 5764 5761
5784 5786 5788 5789 5791 5792 5793 5793 5793 5793 5793 5792 5790 5789 5788 5786 5784 5783 5781 5781 5781 5781 5781 5782 5783 5784 5785 5785 5785 5785 5784 5783 5782 5781 5780 5779 5777 5775 5773 5771 5769 5767 5765 5763
5773 5776 5778 5780 5782 5784 5785 5786 5787 5788 5787 5787 5787 5786 5785 5783 5782 5781 5779 5778 5777 5777 5777 5778 5779 5780 5781 5782 5782 5782 5782 5781 5781 5780 5779 5778 5776 5775 5773 5771 5769 5767 5765 5764
5762 5765 5768 5770 5772 5774 5776 5778 5779 5780 5781 5781 5781 5781 5780 5779 5779 5778 5777 5775 5774 5774 5773 5774 5774 5775 5776 5777 5778 5779 5779 5779 5778 5778 5777 5776 5775 5774 5772 5770 5769 5767 5765 5764